Location: *
(32.8140°S, 174.6161°E)
Time: 11:31:29
(UTC+00:00)

Cosmos 1238 Rocket - Pass Details

Date: 10 December 2019
Orbit: 375 x 1032 km, 82.9° (Epoch: 27 January)

Event Time Altitude Azimuth Distance (km) Brightness Sun altitude
Rises 14:31:20 0° 184° (S) 3,815 7.8 -25.4°
Reaches altitude 10° 14:33:59 10° 182° (S) 2,856 7.1 -25.1°
Maximum altitude 14:40:42 73° 97° (E) 1,044 4.2 -24.2°
Enters shadow 14:43:54 31° 18° (NNE) 1,618 4.8 -23.8°
